Volver al catálogo

STARLINK-32792

ActivoComunicacionesVLEO
NORAD 62504·PAYLOAD·🇺🇸 United States

Lanzado Jan 6, 2025 desde Cape Canaveral Space Force Station

Loading…

Próximos Pases (próximas 24 horas)

TLE

ActualizadoSource: CelesTrak SupGP

Época: Sep 14, 2026, 20:57 UTC

1 62504C 25003T   26257.87340278 -.00021888  00000+0 -79277-3 0  2578
2 62504  43.0021 300.1305 0001568 270.2202 307.1537 15.27589964    19

Sigue STARLINK-32792 en tiempo real con AllMySat

Download on the App Store